Time,TemperatureF,DewpointF,PressureIn,WindDirection,WindDirectionDegrees,WindSpeedMPH,WindSpeedGustMPH,Humidity,HourlyPrecipIn,Conditions,Clouds,dailyrainin,SoftwareType,DateUTC
2013-02-28 00:01:00,30.0,24.9,30.10,NNW,338,1.5,9.6,81,0.00,,,0.00,WUHU216HW,2013-02-28 06:01:00,
2013-02-28 00:06:00,30.0,24.6,30.10,North,0,6.4,8.9,80,0.00,,,0.00,WUHU216HW,2013-02-28 06:06:00,
2013-02-28 00:12:00,30.0,24.6,30.10,NNW,338,7.1,9.1,80,0.00,,,0.00,WUHU216HW,2013-02-28 06:12:00,
2013-02-28 00:17:00,30.0,24.6,30.10,North,0,7.1,9.1,80,0.00,,,0.00,WUHU216HW,2013-02-28 06:17:00,
2013-02-28 00:22:00,30.0,24.2,30.10,North,0,8.7,10.7,79,0.00,,,0.00,WUHU216HW,2013-02-28 06:22:00,
2013-02-28 00:27:00,30.0,24.2,30.10,North,0,8.9,10.7,79,0.00,,,0.00,WUHU216HW,2013-02-28 06:27:00,
2013-02-28 00:32:00,30.0,23.9,30.10,NNW,338,9.3,9.8,78,0.00,,,0.00,WUHU216HW,2013-02-28 06:32:00,
2013-02-28 00:37:00,30.0,24.2,30.10,NNW,338,7.1,9.8,79,0.00,,,0.00,WUHU216HW,2013-02-28 06:37:00,
2013-02-28 00:42:00,29.8,24.1,30.10,North,0,9.6,9.6,79,0.00,,,0.00,WUHU216HW,2013-02-28 06:42:00,
2013-02-28 00:47:00,29.8,24.1,30.10,North,0,6.4,9.6,79,0.00,,,0.00,WUHU216HW,2013-02-28 06:47:00,
2013-02-28 00:52:00,29.8,24.1,30.10,NNW,338,7.1,10.0,79,0.00,,,0.00,WUHU216HW,2013-02-28 06:52:00,
2013-02-28 00:57:00,29.8,24.4,30.10,North,0,7.6,10.0,80,0.00,,,0.00,WUHU216HW,2013-02-28 06:57:00,
2013-02-28 01:02:00,29.4,23.7,30.10,NNW,338,9.6,10.0,79,0.00,,,0.00,WUHU216HW,2013-02-28 07:02:00,
2013-02-28 01:07:00,29.3,23.5,30.10,North,0,9.6,13.1,79,0.00,,,0.00,WUHU216HW,2013-02-28 07:07:00,
2013-02-28 01:12:00,28.9,23.2,30.10,North,0,8.5,13.1,79,0.00,,,0.00,WUHU216HW,2013-02-28 07:12:00,
2013-02-28 01:17:00,28.9,23.2,30.11,North,0,6.7,11.4,79,0.00,,,0.00,WUHU216HW,2013-02-28 07:17:00,
2013-02-28 01:22:00,28.7,23.0,30.11,NNW,338,7.8,11.8,79,0.00,,,0.00,WUHU216HW,2013-02-28 07:22:00,
2013-02-28 01:27:00,28.5,23.1,30.11,NNE,23,6.9,11.8,80,0.00,,,0.00,WUHU216HW,2013-02-28 07:27:00,
2013-02-28 01:33:00,28.5,23.1,30.10,NNW,338,6.2,10.2,80,0.00,,,0.00,WUHU216HW,2013-02-28 07:33:00,
2013-02-28 01:38:00,28.5,23.1,30.11,North,0,6.7,9.6,80,0.00,,,0.00,WUHU216HW,2013-02-28 07:38:00,
2013-02-28 01:43:00,28.4,23.0,30.11,NW,315,7.8,9.3,80,0.00,,,0.00,WUHU216HW,2013-02-28 07:43:00,
2013-02-28 01:48:00,28.2,23.1,30.10,North,0,7.8,10.7,81,0.00,,,0.00,WUHU216HW,2013-02-28 07:48:00,
2013-02-28 01:53:00,28.2,23.1,30.10,North,0,7.6,10.7,81,0.00,,,0.00,WUHU216HW,2013-02-28 07:53:00,
2013-02-28 01:58:00,28.2,23.1,30.10,NNW,338,6.9,9.1,81,0.00,,,0.00,WUHU216HW,2013-02-28 07:58:00,
2013-02-28 02:03:00,28.0,22.9,30.11,NNW,338,9.1,10.0,81,0.00,,,0.00,WUHU216HW,2013-02-28 08:03:00,
2013-02-28 02:08:00,28.0,23.2,30.11,North,0,6.2,10.0,82,0.00,,,0.00,WUHU216HW,2013-02-28 08:08:00,
2013-02-28 02:13:00,28.0,23.2,30.11,North,0,5.5,9.1,82,0.00,,,0.00,WUHU216HW,2013-02-28 08:13:00,
2013-02-28 02:18:00,28.0,23.2,30.11,NNW,338,6.7,8.2,82,0.00,,,0.00,WUHU216HW,2013-02-28 08:18:00,
2013-02-28 02:23:00,28.0,23.2,30.11,North,0,8.0,9.1,82,0.00,,,0.00,WUHU216HW,2013-02-28 08:23:00,
2013-02-28 02:28:00,28.0,23.2,30.11,NNE,23,0.0,9.1,82,0.00,,,0.00,WUHU216HW,2013-02-28 08:28:00,
2013-02-28 02:33:00,27.8,23.0,30.11,North,0,6.2,8.7,82,0.00,,,0.00,WUHU216HW,2013-02-28 08:33:00,
2013-02-28 02:38:00,27.8,23.0,30.11,North,0,7.1,8.7,82,0.00,,,0.00,WUHU216HW,2013-02-28 08:38:00,
2013-02-28 02:43:00,27.8,23.0,30.11,NNW,338,4.6,8.9,82,0.00,,,0.00,WUHU216HW,2013-02-28 08:43:00,
2013-02-28 02:48:00,27.8,23.0,30.10,North,0,0.0,8.9,82,0.00,,,0.00,WUHU216HW,2013-02-28 08:48:00,
2013-02-28 02:53:00,27.8,23.0,30.11,NE,45,0.8,6.4,82,0.00,,,0.00,WUHU216HW,2013-02-28 08:53:00,
2013-02-28 02:59:00,27.6,22.8,30.11,North,0,4.9,4.9,82,0.00,,,0.00,WUHU216HW,2013-02-28 08:59:00,
2013-02-28 03:04:00,27.6,22.8,30.11,NNW,338,6.7,10.0,82,0.00,,,0.00,WUHU216HW,2013-02-28 09:04:00,
2013-02-28 03:09:00,27.6,22.8,30.11,North,0,5.1,10.0,82,0.00,,,0.00,WUHU216HW,2013-02-28 09:09:00,
2013-02-28 03:14:00,27.6,22.8,30.11,NW,315,7.8,11.4,82,0.00,,,0.00,WUHU216HW,2013-02-28 09:14:00,
2013-02-28 03:19:00,27.5,22.6,30.11,NNW,338,6.2,11.4,82,0.00,,,0.00,WUHU216HW,2013-02-28 09:19:00,
2013-02-28 03:24:00,27.6,22.8,30.11,North,0,1.1,10.9,82,0.00,,,0.00,WUHU216HW,2013-02-28 09:24:00,
2013-02-28 03:29:00,27.6,22.8,30.11,NNW,338,6.7,10.9,82,0.00,,,0.00,WUHU216HW,2013-02-28 09:29:00,
2013-02-28 03:34:00,27.6,22.8,30.11,North,0,5.1,7.3,82,0.00,,,0.00,WUHU216HW,2013-02-28 09:34:00,
2013-02-28 03:39:00,27.5,22.6,30.11,North,0,8.9,8.9,82,0.00,,,0.00,WUHU216HW,2013-02-28 09:39:00,
2013-02-28 03:44:00,27.5,22.6,30.11,NNW,338,6.9,8.9,82,0.00,,,0.00,WUHU216HW,2013-02-28 09:44:00,
2013-02-28 03:49:00,27.5,22.6,30.12,NE,45,7.1,8.9,82,0.00,,,0.00,WUHU216HW,2013-02-28 09:49:00,
2013-02-28 03:54:00,27.3,22.4,30.12,North,0,6.0,8.9,82,0.00,,,0.00,WUHU216HW,2013-02-28 09:54:00,
2013-02-28 03:59:00,27.3,22.4,30.11,NNW,338,6.0,7.8,82,0.00,,,0.00,WUHU216HW,2013-02-28 09:59:00,
2013-02-28 04:04:00,27.3,22.4,30.11,North,0,0.0,8.5,82,0.00,,,0.00,WUHU216HW,2013-02-28 10:04:00,
2013-02-28 04:09:00,27.3,22.4,30.11,North,0,2.9,9.3,82,0.00,,,0.00,WUHU216HW,2013-02-28 10:09:00,
2013-02-28 04:14:00,27.3,22.4,30.11,North,0,1.1,9.3,82,0.00,,,0.00,WUHU216HW,2013-02-28 10:14:00,
2013-02-28 04:19:00,27.3,22.4,30.11,North,0,2.2,6.7,82,0.00,,,0.00,WUHU216HW,2013-02-28 10:19:00,
2013-02-28 04:25:00,27.3,22.4,30.12,North,0,4.4,6.7,82,0.00,,,0.00,WUHU216HW,2013-02-28 10:25:00,
2013-02-28 04:30:00,27.3,22.4,30.12,North,0,7.3,8.7,82,0.00,,,0.00,WUHU216HW,2013-02-28 10:30:00,
2013-02-28 04:35:00,27.3,22.4,30.12,North,0,4.6,8.7,82,0.00,,,0.00,WUHU216HW,2013-02-28 10:35:00,
2013-02-28 04:40:00,27.3,22.4,30.13,NW,315,0.6,6.9,82,0.00,,,0.00,WUHU216HW,2013-02-28 10:40:00,
2013-02-28 04:45:00,27.3,22.4,30.13,North,0,2.0,6.9,82,0.00,,,0.00,WUHU216HW,2013-02-28 10:45:00,
2013-02-28 04:50:00,27.3,22.4,30.13,North,0,2.0,5.1,82,0.00,,,0.00,WUHU216HW,2013-02-28 10:50:00,
2013-02-28 04:55:00,27.3,22.4,30.13,NNW,338,8.0,8.0,82,0.00,,,0.00,WUHU216HW,2013-02-28 10:55:00,
2013-02-28 05:00:00,26.9,21.8,30.14,NNE,23,0.0,9.1,81,0.00,,,0.00,WUHU216HW,2013-02-28 11:00:00,
2013-02-28 05:05:00,26.7,21.6,30.14,NNE,23,7.6,10.2,81,0.00,,,0.00,WUHU216HW,2013-02-28 11:05:00,
2013-02-28 05:10:00,26.7,21.6,30.14,North,0,2.6,10.2,81,0.00,,,0.00,WUHU216HW,2013-02-28 11:10:00,
2013-02-28 05:15:00,26.7,21.6,30.14,North,0,2.2,7.6,81,0.00,,,0.00,WUHU216HW,2013-02-28 11:15:00,
2013-02-28 05:20:00,26.7,21.6,30.14,North,0,8.2,8.5,81,0.00,,,0.00,WUHU216HW,2013-02-28 11:20:00,
2013-02-28 05:25:00,26.6,21.4,30.14,North,0,5.3,8.5,81,0.00,,,0.00,WUHU216HW,2013-02-28 11:25:00,
2013-02-28 05:30:00,26.6,21.4,30.14,NNW,338,6.4,8.9,81,0.00,,,0.00,WUHU216HW,2013-02-28 11:30:00,
2013-02-28 05:35:00,26.7,21.9,30.14,North,0,4.6,8.9,82,0.00,,,0.00,WUHU216HW,2013-02-28 11:35:00,
2013-02-28 05:40:00,26.7,21.9,30.14,North,0,8.0,8.0,82,0.00,,,0.00,WUHU216HW,2013-02-28 11:40:00,
2013-02-28 05:45:00,26.7,21.9,30.14,NNW,338,5.5,9.1,82,0.00,,,0.00,WUHU216HW,2013-02-28 11:45:00,
2013-02-28 05:51:00,26.7,21.9,30.14,NNE,23,6.7,9.1,82,0.00,,,0.00,WUHU216HW,2013-02-28 11:51:00,
2013-02-28 05:56:00,26.6,21.7,30.15,North,0,8.5,9.8,82,0.00,,,0.00,WUHU216HW,2013-02-28 11:56:00,
2013-02-28 06:01:00,26.4,21.6,30.14,NNE,23,6.7,9.8,82,0.00,,,0.00,WUHU216HW,2013-02-28 12:01:00,
2013-02-28 06:06:00,26.4,21.6,30.14,North,0,0.6,8.9,82,0.00,,,0.00,WUHU216HW,2013-02-28 12:06:00,
2013-02-28 06:11:00,26.4,21.6,30.14,NNE,23,7.3,7.3,82,0.00,,,0.00,WUHU216HW,2013-02-28 12:11:00,
2013-02-28 06:16:00,26.4,21.6,30.14,NNE,23,0.4,7.3,82,0.00,,,0.00,WUHU216HW,2013-02-28 12:16:00,
2013-02-28 06:21:00,26.4,21.6,30.15,North,0,2.6,7.1,82,0.00,,,0.00,WUHU216HW,2013-02-28 12:21:00,
2013-02-28 06:26:00,26.7,21.9,30.15,North,0,1.3,3.1,82,0.00,,,0.00,WUHU216HW,2013-02-28 12:26:00,
2013-02-28 06:31:00,26.4,21.6,30.15,NNW,338,6.7,8.2,82,0.00,,,0.00,WUHU216HW,2013-02-28 12:31:00,
2013-02-28 06:36:00,26.4,21.6,30.15,North,0,5.5,8.2,82,0.00,,,0.00,WUHU216HW,2013-02-28 12:36:00,
2013-02-28 06:41:00,26.4,21.3,30.15,North,0,2.9,8.2,81,0.00,,,0.00,WUHU216HW,2013-02-28 12:41:00,
2013-02-28 06:46:00,26.4,21.6,30.15,North,0,5.1,7.8,82,0.00,,,0.00,WUHU216HW,2013-02-28 12:46:00,
2013-02-28 06:51:00,26.4,21.6,30.15,North,0,7.8,7.8,82,0.00,,,0.00,WUHU216HW,2013-02-28 12:51:00,
2013-02-28 06:56:00,26.4,21.6,30.15,NNW,338,6.0,7.8,82,0.00,,,0.00,WUHU216HW,2013-02-28 12:56:00,
2013-02-28 07:01:00,26.4,21.6,30.16,NNW,338,5.5,8.7,82,0.00,,,0.00,WUHU216HW,2013-02-28 13:01:00,
2013-02-28 07:06:00,26.2,21.4,30.16,NNW,338,8.0,11.1,82,0.00,,,0.00,WUHU216HW,2013-02-28 13:06:00,
2013-02-28 07:12:00,26.4,21.6,30.16,North,0,0.0,11.1,82,0.00,,,0.00,WUHU216HW,2013-02-28 13:12:00,
2013-02-28 07:17:00,26.4,21.6,30.16,NNW,338,7.3,8.0,82,0.00,,,0.00,WUHU216HW,2013-02-28 13:17:00,
2013-02-28 07:22:00,26.2,21.4,30.16,North,0,1.7,7.3,82,0.00,,,0.00,WUHU216HW,2013-02-28 13:22:00,
2013-02-28 07:27:00,26.2,21.4,30.16,North,0,0.0,7.1,82,0.00,,,0.00,WUHU216HW,2013-02-28 13:27:00,
2013-02-28 07:32:00,26.2,21.4,30.17,NNW,338,2.4,9.3,82,0.00,,,0.00,WUHU216HW,2013-02-28 13:32:00,
2013-02-28 07:37:00,26.4,21.6,30.16,North,0,0.0,9.3,82,0.00,,,0.00,WUHU216HW,2013-02-28 13:37:00,
2013-02-28 07:42:00,26.4,21.8,30.16,North,0,4.4,5.5,83,0.00,,,0.00,WUHU216HW,2013-02-28 13:42:00,
2013-02-28 07:47:00,26.4,21.8,30.17,North,0,0.0,5.5,83,0.00,,,0.00,WUHU216HW,2013-02-28 13:47:00,
2013-02-28 07:52:00,26.4,21.8,30.17,North,0,0.0,4.4,82,0.00,,,0.00,WUHU216HW,2013-02-28 13:52:00,
2013-02-28 07:57:00,26.4,21.6,30.17,North,0,2.6,7.1,82,0.00,,,0.00,WUHU216HW,2013-02-28 13:57:00,
2013-02-28 08:02:00,26.4,21.6,30.16,North,0,5.1,8.2,82,0.00,,,0.00,WUHU216HW,2013-02-28 14:02:00,
2013-02-28 08:07:00,26.4,21.6,30.16,NNE,23,7.6,8.2,82,0.00,,,0.00,WUHU216HW,2013-02-28 14:07:00,
2013-02-28 08:12:00,26.4,21.6,30.17,North,0,1.1,7.6,82,0.00,,,0.00,WUHU216HW,2013-02-28 14:12:00,
2013-02-28 08:17:00,26.4,21.6,30.17,North,0,1.3,5.3,82,0.00,,,0.00,WUHU216HW,2013-02-28 14:17:00,
2013-02-28 08:22:00,26.4,21.3,30.17,North,0,6.0,8.0,81,0.00,,,0.00,WUHU216HW,2013-02-28 14:22:00,
2013-02-28 08:27:00,26.4,21.3,30.17,North,0,5.8,9.1,81,0.00,,,0.00,WUHU216HW,2013-02-28 14:27:00,
2013-02-28 08:32:00,26.4,21.3,30.18,North,0,7.6,9.1,81,0.00,,,0.00,WUHU216HW,2013-02-28 14:32:00,
2013-02-28 08:38:00,26.2,21.1,30.18,NNE,23,3.8,9.6,81,0.00,,,0.00,WUHU216HW,2013-02-28 14:38:00,
2013-02-28 08:43:00,26.4,21.3,30.18,North,0,0.4,9.6,81,0.00,,,0.00,WUHU216HW,2013-02-28 14:43:00,
2013-02-28 08:48:00,26.4,21.3,30.18,North,0,6.9,7.6,81,0.00,,,0.00,WUHU216HW,2013-02-28 14:48:00,
2013-02-28 08:53:00,26.4,21.0,30.18,North,0,1.1,8.7,80,0.00,,,0.00,WUHU216HW,2013-02-28 14:53:00,
2013-02-28 08:58:00,26.4,21.0,30.18,North,0,3.1,8.7,81,0.00,,,0.00,WUHU216HW,2013-02-28 14:58:00,
2013-02-28 09:03:00,26.7,21.3,30.18,North,0,0.2,8.9,80,0.00,,,0.00,WUHU216HW,2013-02-28 15:03:00,
2013-02-28 09:08:00,26.7,21.3,30.19,North,0,4.9,8.9,80,0.00,,,0.00,WUHU216HW,2013-02-28 15:08:00,
2013-02-28 09:13:00,26.9,21.5,30.19,North,0,6.2,7.3,80,0.00,,,0.00,WUHU216HW,2013-02-28 15:13:00,
2013-02-28 09:18:00,27.1,21.7,30.19,North,0,1.5,8.5,80,0.00,,,0.00,WUHU216HW,2013-02-28 15:18:00,
2013-02-28 09:23:00,27.1,21.7,30.19,North,0,1.7,8.5,80,0.00,,,0.00,WUHU216HW,2013-02-28 15:23:00,
2013-02-28 09:28:00,27.3,21.9,30.19,North,0,1.1,7.8,80,0.00,,,0.00,WUHU216HW,2013-02-28 15:28:00,
2013-02-28 09:33:00,27.5,22.1,30.18,North,0,2.9,7.8,80,0.00,,,0.00,WUHU216HW,2013-02-28 15:33:00,
2013-02-28 09:38:00,27.5,21.7,30.18,North,0,1.7,7.8,79,0.00,,,0.00,WUHU216HW,2013-02-28 15:38:00,
2013-02-28 09:43:00,27.6,22.2,30.19,NNW,338,4.9,7.8,80,0.00,,,0.00,WUHU216HW,2013-02-28 15:43:00,
2013-02-28 09:49:00,28.0,22.3,30.19,North,0,1.7,8.7,80,0.00,,,0.00,WUHU216HW,2013-02-28 15:49:00,
2013-02-28 09:54:00,28.2,22.5,30.19,North,0,4.9,8.7,79,0.00,,,0.00,WUHU216HW,2013-02-28 15:54:00,
2013-02-28 09:59:00,28.0,22.3,30.19,North,0,0.2,8.7,79,0.00,,,0.00,WUHU216HW,2013-02-28 15:59:00,
2013-02-28 10:04:00,28.2,22.5,30.19,NNW,338,3.3,8.7,79,0.00,,,0.00,WUHU216HW,2013-02-28 16:04:00,
2013-02-28 10:09:00,28.4,22.3,30.19,North,0,4.9,7.6,78,0.00,,,0.00,WUHU216HW,2013-02-28 16:09:00,
2013-02-28 10:14:00,28.5,22.5,30.19,North,0,4.0,8.0,78,0.00,,,0.00,WUHU216HW,2013-02-28 16:14:00,
2013-02-28 10:19:00,28.5,22.5,30.19,North,0,3.8,8.0,78,0.00,,,0.00,WUHU216HW,2013-02-28 16:19:00,
2013-02-28 10:24:00,28.7,22.4,30.20,North,0,4.2,8.7,77,0.00,,,0.00,WUHU216HW,2013-02-28 16:24:00,
2013-02-28 10:29:00,28.7,22.4,30.20,North,0,5.8,8.7,77,0.00,,,0.00,WUHU216HW,2013-02-28 16:29:00,
2013-02-28 10:34:00,28.9,22.6,30.20,NNW,338,5.5,7.8,77,0.00,,,0.00,WUHU216HW,2013-02-28 16:34:00,
2013-02-28 10:39:00,28.9,22.9,30.20,North,0,4.4,7.8,78,0.00,,,0.00,WUHU216HW,2013-02-28 16:39:00,
2013-02-28 10:44:00,28.9,22.6,30.20,North,0,3.3,7.3,77,0.00,,,0.00,WUHU216HW,2013-02-28 16:44:00,
2013-02-28 10:49:00,29.1,22.7,30.20,North,0,4.0,8.0,77,0.00,,,0.00,WUHU216HW,2013-02-28 16:49:00,
2013-02-28 10:54:00,29.1,22.7,30.20,North,0,4.2,8.0,77,0.00,,,0.00,WUHU216HW,2013-02-28 16:54:00,
2013-02-28 10:59:00,29.3,22.9,30.20,North,0,4.2,7.8,77,0.00,,,0.00,WUHU216HW,2013-02-28 16:59:00,
2013-02-28 11:04:00,29.3,22.9,30.20,North,0,7.3,7.3,77,0.00,,,0.00,WUHU216HW,2013-02-28 17:04:00,
2013-02-28 11:09:00,29.1,22.4,30.20,North,0,8.9,9.3,76,0.00,,,0.00,WUHU216HW,2013-02-28 17:09:00,
2013-02-28 11:15:00,29.1,22.7,30.21,NNE,23,0.0,9.3,77,0.00,,,0.00,WUHU216HW,2013-02-28 17:15:00,
2013-02-28 11:20:00,29.4,23.1,30.21,North,0,0.6,8.9,77,0.00,,,0.00,WUHU216HW,2013-02-28 17:20:00,
2013-02-28 11:25:00,29.8,23.4,30.21,North,0,3.8,8.5,77,0.00,,,0.00,WUHU216HW,2013-02-28 17:25:00,
2013-02-28 11:30:00,30.0,23.6,30.20,North,0,1.1,8.5,77,0.00,,,0.00,WUHU216HW,2013-02-28 17:30:00,
2013-02-28 11:35:00,30.3,23.6,30.21,NNW,338,1.7,7.6,76,0.00,,,0.00,WUHU216HW,2013-02-28 17:35:00,
2013-02-28 11:40:00,30.5,23.5,30.21,North,0,0.8,7.6,75,0.00,,,0.00,WUHU216HW,2013-02-28 17:40:00,
2013-02-28 11:45:00,30.7,23.7,30.21,North,0,5.8,8.9,75,0.00,,,0.00,WUHU216HW,2013-02-28 17:45:00,
2013-02-28 11:50:00,30.7,23.7,30.21,North,0,5.8,9.3,75,0.00,,,0.00,WUHU216HW,2013-02-28 17:50:00,
2013-02-28 11:55:00,30.7,23.7,30.21,North,0,7.6,9.3,75,0.00,,,0.00,WUHU216HW,2013-02-28 17:55:00,
2013-02-28 12:00:00,30.5,23.5,30.21,North,0,3.1,9.3,75,0.00,,,0.00,WUHU216HW,2013-02-28 18:00:00,
2013-02-28 12:05:00,30.7,23.7,30.20,North,0,0.0,9.3,75,0.00,,,0.00,WUHU216HW,2013-02-28 18:05:00,
2013-02-28 12:10:00,30.7,23.7,30.20,North,0,4.9,5.8,75,0.00,,,0.00,WUHU216HW,2013-02-28 18:10:00,
2013-02-28 12:15:00,30.9,23.9,30.20,North,0,3.3,9.1,75,0.00,,,0.00,WUHU216HW,2013-02-28 18:15:00,
2013-02-28 12:20:00,30.9,23.9,30.20,North,0,3.3,9.1,75,0.00,,,0.00,WUHU216HW,2013-02-28 18:20:00,
2013-02-28 12:25:00,30.9,23.9,30.20,NNW,338,2.6,8.2,75,0.00,,,0.00,WUHU216HW,2013-02-28 18:25:00,
2013-02-28 12:30:00,30.9,23.9,30.20,North,0,0.0,8.2,75,0.00,,,0.00,WUHU216HW,2013-02-28 18:30:00,
2013-02-28 12:35:00,31.2,24.2,30.20,North,0,2.0,7.1,75,0.00,,,0.00,WUHU216HW,2013-02-28 18:35:00,
2013-02-28 12:41:00,31.2,24.2,30.20,North,0,2.6,7.1,75,0.00,,,0.00,WUHU216HW,2013-02-28 18:41:00,
2013-02-28 12:46:00,31.1,24.0,30.19,NNE,23,0.0,5.1,75,0.00,,,0.00,WUHU216HW,2013-02-28 18:46:00,
2013-02-28 12:51:00,31.1,24.0,30.19,North,0,0.0,2.9,75,0.00,,,0.00,WUHU216HW,2013-02-28 18:51:00,
2013-02-28 12:56:00,31.2,24.2,30.19,North,0,2.0,3.3,75,0.00,,,0.00,WUHU216HW,2013-02-28 18:56:00,
2013-02-28 13:01:00,31.6,23.9,30.19,North,0,7.3,7.8,73,0.00,,,0.00,WUHU216HW,2013-02-28 19:01:00,
2013-02-28 13:06:00,31.6,24.2,30.19,North,0,4.6,8.5,74,0.00,,,0.00,WUHU216HW,2013-02-28 19:06:00,
2013-02-28 13:11:00,31.6,23.9,30.19,North,0,5.8,8.5,73,0.00,,,0.00,WUHU216HW,2013-02-28 19:11:00,
2013-02-28 13:16:00,31.6,24.2,30.19,NNW,338,6.7,9.1,74,0.00,,,0.00,WUHU216HW,2013-02-28 19:16:00,
2013-02-28 13:21:00,31.6,24.2,30.18,NNW,338,4.4,9.1,74,0.00,,,0.00,WUHU216HW,2013-02-28 19:21:00,
2013-02-28 13:26:00,32.0,24.0,30.18,NNW,338,3.8,6.9,72,0.00,,,0.00,WUHU216HW,2013-02-28 19:26:00,
2013-02-28 13:31:00,31.8,23.8,30.18,NNE,23,7.3,8.7,72,0.00,,,0.00,WUHU216HW,2013-02-28 19:31:00,
2013-02-28 13:36:00,32.0,24.0,30.18,North,0,6.0,8.7,72,0.00,,,0.00,WUHU216HW,2013-02-28 19:36:00,
2013-02-28 13:41:00,32.1,24.1,30.18,North,0,7.6,8.7,72,0.00,,,0.00,WUHU216HW,2013-02-28 19:41:00,
2013-02-28 13:46:00,32.3,24.6,30.18,NNW,338,0.0,7.6,72,0.00,,,0.00,WUHU216HW,2013-02-28 19:46:00,
2013-02-28 13:51:00,32.5,24.4,30.18,North,0,5.5,6.7,72,0.00,,,0.00,WUHU216HW,2013-02-28 19:51:00,
2013-02-28 13:56:00,32.3,24.3,30.18,NNW,338,4.4,7.8,72,0.00,,,0.00,WUHU216HW,2013-02-28 19:56:00,
2013-02-28 14:01:00,32.1,24.1,30.18,North,0,8.2,8.2,72,0.00,,,0.00,WUHU216HW,2013-02-28 20:01:00,
2013-02-28 14:07:00,32.1,24.4,30.18,North,0,5.5,8.2,73,0.00,,,0.00,WUHU216HW,2013-02-28 20:07:00,
2013-02-28 14:12:00,32.1,24.4,30.18,North,0,1.3,8.2,74,0.00,,,0.00,WUHU216HW,2013-02-28 20:12:00,
2013-02-28 14:17:00,32.1,24.4,30.17,North,0,3.8,5.1,73,0.00,,,0.00,WUHU216HW,2013-02-28 20:17:00,
2013-02-28 14:22:00,32.3,24.9,30.17,North,0,5.8,6.0,74,0.00,,,0.00,WUHU216HW,2013-02-28 20:22:00,
2013-02-28 14:27:00,32.3,24.6,30.17,North,0,6.9,7.6,73,0.00,,,0.00,WUHU216HW,2013-02-28 20:27:00,
2013-02-28 14:32:00,32.1,24.1,30.17,North,0,3.5,8.7,72,0.00,,,0.00,WUHU216HW,2013-02-28 20:32:00,
2013-02-28 14:37:00,32.1,24.1,30.17,North,0,5.8,8.7,72,0.00,,,0.00,WUHU216HW,2013-02-28 20:37:00,
2013-02-28 14:42:00,32.0,24.3,30.17,North,0,3.1,8.5,73,0.00,,,0.00,WUHU216HW,2013-02-28 20:42:00,
2013-02-28 14:47:00,32.0,24.3,30.17,North,0,3.1,6.7,73,0.00,,,0.00,WUHU216HW,2013-02-28 20:47:00,
2013-02-28 14:52:00,31.8,24.1,30.17,North,0,2.9,8.0,73,0.00,,,0.00,WUHU216HW,2013-02-28 20:52:00,
2013-02-28 14:57:00,31.8,24.4,30.17,North,0,0.0,8.0,74,0.00,,,0.00,WUHU216HW,2013-02-28 20:57:00,
2013-02-28 15:02:00,31.8,24.4,30.17,North,0,0.0,2.4,74,0.00,,,0.00,WUHU216HW,2013-02-28 21:02:00,
2013-02-28 15:07:00,31.8,24.4,30.18,North,0,3.5,3.5,73,0.00,,,0.00,WUHU216HW,2013-02-28 21:07:00,
2013-02-28 15:12:00,31.6,23.9,30.17,North,0,7.1,7.1,73,0.00,,,0.00,WUHU216HW,2013-02-28 21:12:00,
2013-02-28 15:17:00,31.6,23.9,30.18,NNW,338,4.6,8.5,73,0.00,,,0.00,WUHU216HW,2013-02-28 21:17:00,
2013-02-28 15:22:00,31.4,23.7,30.17,North,0,2.9,8.5,73,0.00,,,0.00,WUHU216HW,2013-02-28 21:22:00,
2013-02-28 15:28:00,31.6,23.9,30.17,NNW,338,4.9,7.8,73,0.00,,,0.00,WUHU216HW,2013-02-28 21:28:00,
2013-02-28 15:33:00,31.6,23.9,30.17,NNW,338,5.8,8.9,73,0.00,,,0.00,WUHU216HW,2013-02-28 21:33:00,
2013-02-28 15:38:00,31.6,24.2,30.17,NNW,338,0.0,8.9,74,0.00,,,0.00,WUHU216HW,2013-02-28 21:38:00,
2013-02-28 15:43:00,31.4,24.1,30.17,North,0,0.0,7.1,74,0.00,,,0.00,WUHU216HW,2013-02-28 21:43:00,
2013-02-28 15:48:00,31.4,23.7,30.17,North,0,6.7,9.8,73,0.00,,,0.00,WUHU216HW,2013-02-28 21:48:00,
2013-02-28 15:53:00,31.2,23.6,30.17,NNE,23,2.4,9.8,73,0.00,,,0.00,WUHU216HW,2013-02-28 21:53:00,
2013-02-28 15:58:00,31.1,23.4,30.17,North,0,3.1,8.7,73,0.00,,,0.00,WUHU216HW,2013-02-28 21:58:00,
2013-02-28 16:03:00,30.9,23.5,30.17,ENE,68,0.0,8.7,74,0.00,,,0.00,WUHU216HW,2013-02-28 22:03:00,
2013-02-28 16:08:00,30.7,23.7,30.18,North,0,2.4,6.7,75,0.00,,,0.00,WUHU216HW,2013-02-28 22:08:00,
2013-02-28 16:13:00,30.7,23.3,30.18,North,0,1.7,8.5,75,0.00,,,0.00,WUHU216HW,2013-02-28 22:13:00,
2013-02-28 16:18:00,30.5,23.5,30.17,NNW,338,1.7,9.3,75,0.00,,,0.00,WUHU216HW,2013-02-28 22:18:00,
2013-02-28 16:23:00,30.5,23.5,30.18,NNW,338,6.4,9.3,75,0.00,,,0.00,WUHU216HW,2013-02-28 22:23:00,
2013-02-28 16:28:00,30.3,23.3,30.18,North,0,4.0,8.2,75,0.00,,,0.00,WUHU216HW,2013-02-28 22:28:00,
2013-02-28 16:33:00,30.3,23.3,30.18,North,0,3.8,6.4,75,0.00,,,0.00,WUHU216HW,2013-02-28 22:33:00,
2013-02-28 16:38:00,30.3,23.3,30.18,North,0,1.7,5.5,75,0.00,,,0.00,WUHU216HW,2013-02-28 22:38:00,
2013-02-28 16:43:00,30.3,23.3,30.18,North,0,5.1,6.7,75,0.00,,,0.00,WUHU216HW,2013-02-28 22:43:00,
2013-02-28 16:49:00,30.0,22.6,30.18,NNW,338,4.6,6.7,74,0.00,,,0.00,WUHU216HW,2013-02-28 22:49:00,
2013-02-28 16:54:00,29.8,22.5,30.18,North,0,5.5,5.5,74,0.00,,,0.00,WUHU216HW,2013-02-28 22:54:00,
2013-02-28 16:59:00,29.4,22.4,30.18,North,0,3.1,5.5,75,0.00,,,0.00,WUHU216HW,2013-02-28 22:59:00,
2013-02-28 17:04:00,29.4,22.4,30.18,North,0,0.0,6.9,75,0.00,,,0.00,WUHU216HW,2013-02-28 23:04:00,
2013-02-28 17:09:00,29.1,22.1,30.19,North,0,1.3,9.1,75,0.00,,,0.00,WUHU216HW,2013-02-28 23:09:00,
2013-02-28 17:14:00,28.7,22.1,30.18,North,0,7.1,9.1,76,0.00,,,0.00,WUHU216HW,2013-02-28 23:14:00,
2013-02-28 17:19:00,28.5,21.9,30.19,North,0,5.1,7.1,76,0.00,,,0.00,WUHU216HW,2013-02-28 23:19:00,
2013-02-28 17:24:00,28.4,22.0,30.19,North,0,1.5,8.9,77,0.00,,,0.00,WUHU216HW,2013-02-28 23:24:00,
2013-02-28 17:29:00,28.0,21.7,30.19,North,0,0.0,8.9,77,0.00,,,0.00,WUHU216HW,2013-02-28 23:29:00,
2013-02-28 17:34:00,27.8,21.5,30.19,North,0,1.7,8.2,77,0.00,,,0.00,WUHU216HW,2013-02-28 23:34:00,
2013-02-28 17:39:00,27.6,21.3,30.19,North,0,4.0,10.0,77,0.00,,,0.00,WUHU216HW,2013-02-28 23:39:00,
2013-02-28 17:44:00,27.6,21.3,30.19,North,0,0.0,10.0,77,0.00,,,0.00,WUHU216HW,2013-02-28 23:44:00,
2013-02-28 17:49:00,27.3,21.0,30.19,North,0,0.0,5.3,77,0.00,,,0.00,WUHU216HW,2013-02-28 23:49:00,
2013-02-28 17:54:00,27.1,20.8,30.20,North,0,4.6,5.3,77,0.00,,,0.00,WUHU216HW,2013-02-28 23:54:00,
2013-02-28 17:59:00,26.9,20.6,30.20,North,0,4.6,6.4,77,0.00,,,0.00,WUHU216HW,2013-02-28 23:59:00,
2013-02-28 18:04:00,26.7,20.4,30.20,North,0,3.1,6.4,77,0.00,,,0.00,WUHU216HW,2013-03-01 00:04:00,
2013-02-28 18:09:00,26.7,20.7,30.20,North,0,0.2,6.9,78,0.00,,,0.00,WUHU216HW,2013-03-01 00:09:00,
2013-02-28 18:15:00,26.7,20.7,30.20,NNW,338,2.0,7.6,78,0.00,,,0.00,WUHU216HW,2013-03-01 00:15:00,
2013-02-28 18:20:00,26.7,20.7,30.20,North,0,5.5,7.6,78,0.00,,,0.00,WUHU216HW,2013-03-01 00:20:00,
2013-02-28 18:25:00,26.4,20.4,30.20,North,0,1.3,6.9,78,0.00,,,0.00,WUHU216HW,2013-03-01 00:25:00,
2013-02-28 18:30:00,26.4,20.4,30.20,NW,315,2.4,6.9,78,0.00,,,0.00,WUHU216HW,2013-03-01 00:30:00,
2013-02-28 18:35:00,26.4,20.4,30.20,North,0,0.6,6.4,78,0.00,,,0.00,WUHU216HW,2013-03-01 00:35:00,
2013-02-28 18:40:00,26.4,20.4,30.21,North,0,6.4,8.5,78,0.00,,,0.00,WUHU216HW,2013-03-01 00:40:00,
2013-02-28 18:45:00,26.4,20.4,30.21,NNE,23,3.1,8.5,78,0.00,,,0.00,WUHU216HW,2013-03-01 00:45:00,
2013-02-28 18:50:00,26.2,20.2,30.21,North,0,8.0,8.0,78,0.00,,,0.00,WUHU216HW,2013-03-01 00:50:00,
2013-02-28 18:55:00,26.2,20.2,30.21,North,0,5.3,8.0,78,0.00,,,0.00,WUHU216HW,2013-03-01 00:55:00,
2013-02-28 19:00:00,26.2,20.2,30.21,North,0,3.5,6.7,78,0.00,,,0.00,WUHU216HW,2013-03-01 01:00:00,
2013-02-28 19:05:00,25.8,19.9,30.22,North,0,2.6,6.7,78,0.00,,,0.00,WUHU216HW,2013-03-01 01:05:00,
2013-02-28 19:10:00,25.8,19.9,30.21,North,0,1.5,6.4,79,0.00,,,0.00,WUHU216HW,2013-03-01 01:10:00,
2013-02-28 19:15:00,25.8,20.2,30.22,NNW,338,5.3,5.3,79,0.00,,,0.00,WUHU216HW,2013-03-01 01:15:00,
2013-02-28 19:20:00,25.8,20.2,30.22,North,0,1.7,5.3,79,0.00,,,0.00,WUHU216HW,2013-03-01 01:20:00,
2013-02-28 19:25:00,25.8,20.2,30.22,North,0,0.0,5.3,79,0.00,,,0.00,WUHU216HW,2013-03-01 01:25:00,
2013-02-28 19:30:00,25.8,20.2,30.22,NNE,23,0.2,5.5,79,0.00,,,0.00,WUHU216HW,2013-03-01 01:30:00,
2013-02-28 19:35:00,25.8,20.2,30.22,North,0,0.0,6.4,79,0.00,,,0.00,WUHU216HW,2013-03-01 01:35:00,
2013-02-28 19:41:00,25.8,20.2,30.22,North,0,0.8,7.6,79,0.00,,,0.00,WUHU216HW,2013-03-01 01:41:00,
2013-02-28 19:46:00,25.8,20.2,30.22,North,0,6.2,6.4,79,0.00,,,0.00,WUHU216HW,2013-03-01 01:46:00,
2013-02-28 19:51:00,25.8,20.2,30.22,North,0,1.7,6.2,79,0.00,,,0.00,WUHU216HW,2013-03-01 01:51:00,
2013-02-28 19:56:00,25.7,19.7,30.22,North,0,0.0,6.2,78,0.00,,,0.00,WUHU216HW,2013-03-01 01:56:00,
2013-02-28 20:01:00,25.8,20.2,30.22,NNW,338,0.0,2.4,79,0.00,,,0.00,WUHU216HW,2013-03-01 02:01:00,
2013-02-28 20:06:00,25.8,20.2,30.22,North,0,0.0,3.3,79,0.00,,,0.00,WUHU216HW,2013-03-01 02:06:00,
2013-02-28 20:11:00,25.8,20.2,30.22,North,0,3.5,3.5,79,0.00,,,0.00,WUHU216HW,2013-03-01 02:11:00,
2013-02-28 20:16:00,25.8,20.2,30.22,North,0,0.4,7.1,79,0.00,,,0.00,WUHU216HW,2013-03-01 02:16:00,
2013-02-28 20:21:00,25.7,20.0,30.22,NNW,338,0.0,7.1,79,0.00,,,0.00,WUHU216HW,2013-03-01 02:21:00,
2013-02-28 20:26:00,25.7,20.0,30.23,North,0,0.0,6.0,78,0.00,,,0.00,WUHU216HW,2013-03-01 02:26:00,
2013-02-28 20:31:00,25.5,19.5,30.22,North,0,5.1,8.2,78,0.00,,,0.00,WUHU216HW,2013-03-01 02:31:00,
2013-02-28 20:36:00,25.5,19.5,30.22,North,0,1.7,9.8,78,0.00,,,0.00,WUHU216HW,2013-03-01 02:36:00,
2013-02-28 20:41:00,25.5,19.5,30.22,NNW,338,0.2,9.8,78,0.00,,,0.00,WUHU216HW,2013-03-01 02:41:00,
2013-02-28 20:46:00,25.5,19.5,30.22,North,0,0.0,8.9,78,0.00,,,0.00,WUHU216HW,2013-03-01 02:46:00,
2013-02-28 20:51:00,25.5,19.5,30.22,North,0,4.9,8.9,78,0.00,,,0.00,WUHU216HW,2013-03-01 02:51:00,
2013-02-28 20:56:00,25.5,19.5,30.22,NNE,23,0.0,7.3,78,0.00,,,0.00,WUHU216HW,2013-03-01 02:56:00,
2013-02-28 21:02:00,25.5,19.9,30.22,North,0,0.0,7.3,79,0.00,,,0.00,WUHU216HW,2013-03-01 03:02:00,
2013-02-28 21:07:00,25.5,19.9,30.22,North,0,3.3,6.2,79,0.00,,,0.00,WUHU216HW,2013-03-01 03:07:00,
2013-02-28 21:12:00,25.5,19.9,30.22,North,0,2.6,7.1,79,0.00,,,0.00,WUHU216HW,2013-03-01 03:12:00,
2013-02-28 21:17:00,25.5,19.9,30.22,North,0,0.6,7.1,78,0.00,,,0.00,WUHU216HW,2013-03-01 03:17:00,
2013-02-28 21:22:00,25.5,19.9,30.22,North,0,0.0,2.6,78,0.00,,,0.00,WUHU216HW,2013-03-01 03:22:00,
2013-02-28 21:27:00,25.5,19.5,30.22,NNW,338,1.5,7.6,78,0.00,,,0.00,WUHU216HW,2013-03-01 03:27:00,
2013-02-28 21:32:00,25.3,19.4,30.22,North,0,4.6,7.6,78,0.00,,,0.00,WUHU216HW,2013-03-01 03:32:00,
2013-02-28 21:37:00,25.3,19.4,30.22,North,0,3.3,4.6,78,0.00,,,0.00,WUHU216HW,2013-03-01 03:37:00,
2013-02-28 21:42:00,25.3,19.4,30.22,NNE,23,0.0,5.3,78,0.00,,,0.00,WUHU216HW,2013-03-01 03:42:00,
2013-02-28 21:47:00,25.3,19.4,30.21,North,0,0.0,5.3,78,0.00,,,0.00,WUHU216HW,2013-03-01 03:47:00,
2013-02-28 21:52:00,25.3,19.4,30.22,North,0,4.2,4.2,78,0.00,,,0.00,WUHU216HW,2013-03-01 03:52:00,
2013-02-28 21:57:00,25.3,19.4,30.22,North,0,2.2,6.0,78,0.00,,,0.00,WUHU216HW,2013-03-01 03:57:00,
2013-02-28 22:02:00,25.3,19.4,30.22,NNW,338,1.5,6.0,78,0.00,,,0.00,WUHU216HW,2013-03-01 04:02:00,
2013-02-28 22:07:00,25.3,19.7,30.21,North,0,0.2,6.0,79,0.00,,,0.00,WUHU216HW,2013-03-01 04:07:00,
2013-02-28 22:12:00,25.3,19.7,30.22,North,0,0.0,5.1,79,0.00,,,0.00,WUHU216HW,2013-03-01 04:12:00,
2013-02-28 22:17:00,25.3,19.7,30.22,NNE,23,4.2,5.8,79,0.00,,,0.00,WUHU216HW,2013-03-01 04:17:00,
2013-02-28 22:22:00,25.3,19.7,30.22,NNE,23,0.0,7.6,79,0.00,,,0.00,WUHU216HW,2013-03-01 04:22:00,
2013-02-28 22:28:00,25.3,19.7,30.22,North,0,0.0,7.6,79,0.00,,,0.00,WUHU216HW,2013-03-01 04:28:00,
2013-02-28 22:33:00,25.1,19.5,30.22,North,0,0.0,0.8,78,0.00,,,0.00,WUHU216HW,2013-03-01 04:33:00,
2013-02-28 22:38:00,25.1,19.5,30.22,North,0,1.5,1.7,79,0.00,,,0.00,WUHU216HW,2013-03-01 04:38:00,
2013-02-28 22:43:00,25.1,19.2,30.21,North,0,4.9,7.1,78,0.00,,,0.00,WUHU216HW,2013-03-01 04:43:00,
2013-02-28 22:48:00,25.1,19.5,30.21,North,0,0.6,7.1,79,0.00,,,0.00,WUHU216HW,2013-03-01 04:48:00,
2013-02-28 22:53:00,25.1,19.2,30.21,North,0,5.3,7.1,78,0.00,,,0.00,WUHU216HW,2013-03-01 04:53:00,
2013-02-28 22:58:00,24.9,19.4,30.21,North,0,0.0,7.1,79,0.00,,,0.00,WUHU216HW,2013-03-01 04:58:00,
2013-02-28 23:03:00,24.9,19.4,30.21,North,0,0.0,6.7,79,0.00,,,0.00,WUHU216HW,2013-03-01 05:03:00,
2013-02-28 23:08:00,24.9,19.0,30.21,NNW,338,5.1,6.0,78,0.00,,,0.00,WUHU216HW,2013-03-01 05:08:00,
2013-02-28 23:13:00,24.9,19.0,30.21,North,0,5.3,7.6,78,0.00,,,0.00,WUHU216HW,2013-03-01 05:13:00,
2013-02-28 23:18:00,24.8,18.9,30.21,North,0,4.6,9.3,78,0.00,,,0.00,WUHU216HW,2013-03-01 05:18:00,
2013-02-28 23:23:00,24.8,18.9,30.21,West,270,2.4,9.3,78,0.00,,,0.00,WUHU216HW,2013-03-01 05:23:00,
2013-02-28 23:28:00,24.6,18.4,30.20,NE,45,0.0,7.1,77,0.00,,,0.00,WUHU216HW,2013-03-01 05:28:00,
2013-02-28 23:33:00,24.6,18.4,30.20,North,0,0.6,6.9,77,0.00,,,0.00,WUHU216HW,2013-03-01 05:33:00,
2013-02-28 23:38:00,24.6,18.4,30.21,North,0,6.0,7.3,77,0.00,,,0.00,WUHU216HW,2013-03-01 05:38:00,
2013-02-28 23:43:00,24.4,17.9,30.21,North,0,1.7,7.3,76,0.00,,,0.00,WUHU216HW,2013-03-01 05:43:00,
2013-02-28 23:49:00,24.4,17.9,30.20,North,0,3.1,7.3,76,0.00,,,0.00,WUHU216HW,2013-03-01 05:49:00,
2013-02-28 23:54:00,24.4,17.9,30.20,North,0,8.2,8.2,76,0.00,,,0.00,WUHU216HW,2013-03-01 05:54:00,
2013-02-28 23:59:00,24.4,17.9,30.20,North,0,6.2,8.5,76,0.00,,,0.00,WUHU216HW,2013-03-01 05:59:00,